INTEGRAL

Last updated on Aug. 11, 2020, 5:37 a.m. UTC

1 27540U 02048A   20222.68169405  .00000680  00000-0  00000+0 0  9992
2 27540  55.8396 109.6798 8976692 293.0044   2.0397  0.37575594 18594
UTC
Height (km)
Latitude
Longitude
Inclination
Orbital Period
UTC large
Height (km)
Speed (km/s)
/
Latitude / Longitude
Inclination (degrees)
Orbital Period (minutes)
Azimuth
Elevation
Range (km)
Doppler Factor
iOS Compass Heading
iOS Angle

Next 30 passes for location: Hong Kong

Rise time Rise Azimuth (degrees) Set time Set Azimuth (degrees) Duration Max altitude (degrees)

No matching passes for this satellites